Location: Alpha Ridge Park
(39.3209°N, 76.9128°W)
Time: 16:41:31
(UTC-04:00)

S-56A Canister/Altair - Pass Details

Date: 20 May 2019
Orbit: 633 x 2499 km, 38.9° (Epoch: 16 June)

Event Time Altitude Azimuth Distance (km) Brightness Sun altitude
Rises 09:56:05 0° 286° (WNW) 5,271 11.4 45.4°
Reaches altitude 10° 09:59:36 10° 278° (W) 4,501 11.1 46.1°
Maximum altitude 10:10:55 37° 218° (SW) 3,310 11.0 48.2°
Drops below altitude 10° 10:23:55 10° 159° (SSE) 5,139 12.2 50.6°
Sets 10:28:19 0° 151° (SSE) 6,079 12.5 51.4°
